"Pseudo-MPEC" for RdSH235

Created 2023 Nov 30 6:22:07 UT using Find_Orb

Click here for an explanation of pseudo-MPECs

 
 Astrometry: 
     RdSH235*KB2023 11 186'Y$-M/ywnmUDoBAstrometry`redacted;8a0(`61nv7click%?Y89
     RdSH235 KB2023 11 18J!/R4here4_bC89k_n6/JXos%x3od'E!,daN2ubq]_0PforQIDAXY89
     RdSH235 KB2023 11 18HyMeL,=_'@G]Lfcg:ubVF;explanation0PFZOg8w@@FLZ+(;K*xY89

Station data:
(Y89) Proxima Centauri Observatory, Valdin  (N42.222443 W6.988110)  Spain.

Orbital elements:  RdSH235
   Perihelion 2024 Jul 26.45873 +/- 266 TT = 11:00:34 (JD 2460517.95873)
Epoch 2023 Nov 19.0 TT = JDT 2460267.5   Earth MOID: 0.2424   Ve: 0.0315
M 254.19576395 +/- 90               (J2000 ecliptic)             AutoNEOCP
n   0.42244179 +/- 0.262            Peri.  177.19666 +/- 57
a   1.75910377 +/- 0.727            Node    25.27587 +/- 37
e   0.5732967 +/- 0.251             Incl.   16.26951 +/- 51
P   2.33/852.17d           H 17.53  G  0.15   U 11.9  SR
q 0.75061537 +/- 0.92    Q 2.76759217 +/- 26.8
From 3 observations 2023 Nov. 18 (42.7 min); mean residual 0".61
Residuals in arcseconds: 
231118 Y89  .59+  .15-    231118 Y89  1.2-  .29+    231118 Y89  .59+  .15-    

Ephemerides (geocentric):
Date (UTC) HH   RA             Dec           delta  r     elong  mag " sig PA
---- --------  ------------   ------------  ------ ------ -----  --- --------
2023 11 30 06  02 10 21.785   +25 23 22.03  1.4655 2.3690 149.5 21.0 254' 139
2023 11 30 07  02 10 18.112   +25 23 09.73  1.4656 2.3688 149.5 21.0 282' 139
2023 11 30 08  02 10 14.442   +25 22 57.42  1.4657 2.3687 149.4 21.0 314' 140
2023 11 30 09  02 10 10.775   +25 22 45.11  1.4659 2.3685 149.4 21.0 352' 140
2023 11 30 10  02 10 07.112   +25 22 32.80  1.4660 2.3683 149.3 21.0 396' 139
2023 11 30 11  02 10 03.452   +25 22 20.48  1.4661 2.3681 149.3 21.0 446' 138
2023 11 30 12  02 09 59.796   +25 22 08.16  1.4662 2.3679 149.2 21.0 500' 137
2023 11 30 13  02 09 56.142   +25 21 55.83  1.4663 2.3677 149.2 21.0 557' 135
2023 11 30 14  02 09 52.493   +25 21 43.50  1.4664 2.3676 149.1 21.0 615' 133
2023 11 30 15  02 09 48.846   +25 21 31.17  1.4665 2.3674 149.1 21.0 670' 130
2023 11 30 16  02 09 45.203   +25 21 18.83  1.4666 2.3672 149.0 21.0 720' 128
2023 11 30 17  02 09 41.563   +25 21 06.49  1.4668 2.3670 149.0 21.0 763' 125
2023 11 30 18  02 09 37.927   +25 20 54.14  1.4669 2.3668 148.9 21.0 799' 123
2023 11 30 19  02 09 34.294   +25 20 41.79  1.4670 2.3666 148.8 21.0 828' 122
2023 11 30 20  02 09 30.664   +25 20 29.44  1.4671 2.3665 148.8 21.0 851' 120
2023 11 30 21  02 09 27.038   +25 20 17.08  1.4672 2.3663 148.7 21.0 870' 119
2023 11 30 22  02 09 23.415   +25 20 04.72  1.4673 2.3661 148.7 21.0 886' 118
2023 11 30 23  02 09 19.796   +25 19 52.36  1.4675 2.3659 148.6 21.0 899' 117
2023 12 01 00  02 09 16.180   +25 19 39.99  1.4676 2.3657 148.6 21.0 909' 116
2023 12 01 01  02 09 12.567   +25 19 27.62  1.4677 2.3655 148.5 21.0 918' 115
2023 12 01 02  02 09 08.958   +25 19 15.25  1.4678 2.3654 148.5 21.0 926' 115
2023 12 01 03  02 09 05.352   +25 19 02.87  1.4679 2.3652 148.4 21.0 932' 114
2023 12 01 04  02 09 01.750   +25 18 50.50  1.4680 2.3650 148.4 21.0 938' 114
2023 12 01 05  02 08 58.151   +25 18 38.11  1.4682 2.3648 148.3 21.0 943' 113
2023 12 01 06  02 08 54.555   +25 18 25.73  1.4683 2.3646 148.3 21.0 947' 113
2023 12 01 07  02 08 50.963   +25 18 13.34  1.4684 2.3644 148.2 21.0 951' 113
2023 12 01 08  02 08 47.374   +25 18 00.95  1.4685 2.3643 148.2 21.0 955' 112
2023 12 01 09  02 08 43.789   +25 17 48.55  1.4687 2.3641 148.1 21.0 958' 112
2023 12 01 10  02 08 40.208   +25 17 36.15  1.4688 2.3639 148.1 21.0 961' 112
2023 12 01 11  02 08 36.629   +25 17 23.75  1.4689 2.3637 148.0 21.0 963' 112
2023 12 01 12  02 08 33.054   +25 17 11.35  1.4690 2.3635 148.0 21.0 966' 112
2023 12 01 13  02 08 29.483   +25 16 58.94  1.4691 2.3633 147.9 21.0 968' 111
2023 12 01 14  02 08 25.915   +25 16 46.53  1.4693 2.3631 147.9 21.0 970' 111
2023 12 01 15  02 08 22.351   +25 16 34.12  1.4694 2.3630 147.8 21.0 972' 111
2023 12 01 16  02 08 18.790   +25 16 21.71  1.4695 2.3628 147.7 21.0 973' 111
2023 12 01 17  02 08 15.232   +25 16 09.29  1.4696 2.3626 147.7 21.0 975' 111
2023 12 01 18  02 08 11.679   +25 15 56.87  1.4698 2.3624 147.6 21.0 976' 111
2023 12 01 19  02 08 08.128   +25 15 44.45  1.4699 2.3622 147.6 21.0 978' 110
2023 12 01 20  02 08 04.581   +25 15 32.02  1.4700 2.3620 147.5 21.0 979' 110
2023 12 01 21  02 08 01.038   +25 15 19.60  1.4701 2.3619 147.5 21.0 980' 110
2023 12 01 22  02 07 57.498   +25 15 07.17  1.4703 2.3617 147.4 21.0 982' 110
2023 12 01 23  02 07 53.961   +25 14 54.73  1.4704 2.3615 147.4 21.0 983' 110
2023 12 02 00  02 07 50.429   +25 14 42.30  1.4705 2.3613 147.3 21.0 984' 110
2023 12 02 01  02 07 46.899   +25 14 29.86  1.4707 2.3611 147.3 21.0 985' 110
2023 12 02 02  02 07 43.373   +25 14 17.43  1.4708 2.3609 147.2 21.0 986' 110
2023 12 02 03  02 07 39.851   +25 14 04.98  1.4709 2.3607 147.2 21.0 987' 110
2023 12 02 04  02 07 36.332   +25 13 52.54  1.4710 2.3606 147.1 21.0 988' 110
2023 12 02 05  02 07 32.817   +25 13 40.10  1.4712 2.3604 147.1 21.0 989' 110